Back to catalog

KUIPER-00184

AliveCommunicationsLEO
NORAD 67139·PAYLOAD·🇺🇸 United States

Launched Dec 15, 2025 from Cape Canaveral Space Force Station

Loading…

Next Passes (next 24 hours)

TLE

FreshSource: CelesTrak SupGP

Epoch: Sep 14, 2026, 16:12 UTC

1 67139C 25301G   26257.67511574  .00005184  00000+0  67872-3 0  2572
2 67139  51.8988 304.8963 0000452  84.0614 247.8116 14.79915846    18

Track KUIPER-00184 in real time with AllMySat

Download on the App Store